sat.trackr.live / text

‹ back to catalog

STARLINK-4500

NORAD 53413 · 2022-097AB

PAYLOAD ACTIVE UNKNOWN

§ Identity

Operator
Country
US
Launch date
2022-08-10
Launch site
AFETR
Launch vehicle
Mass (kg)
RCS (m²)

Purposes: comms

External: N2YO · Heavens-Above · Gunter

§ Orbital elements

Epoch: 2026-05-25T05:07:02.835264Z

Period
95.44 min
Inclination
53.2134°
Eccentricity
0.0001078
Mean motion
15.08840029 rev/d
Perigee alt
539.0 km
Apogee alt
540.5 km
Semi-major
6,917.9 km
B*
4.6211e-5
RAAN
130.5930°
Arg perigee
78.4923°
Mean anomaly
281.6191°
Rev number
21,020

§ Raw data

STARLINK-45001 53413U 22097AB  26145.21322726  .00000448  00000+0  46211-4 0  99922 53413  53.2134 130.5930 0001078  78.4923 281.6191 15.08840029210206

JSON: /api/v1/satellites/53413 · /tle

For live sub-satellite position, see the globe view (requires WebGL).

§ Visibility from observer

Set your observer location to see the next 7 days of passes ≥ 10°. The values pass through the URL so the page stays shareable.

No JS? Fill the form by hand. The geolocation button needs JavaScript.